[[{"header":{"parameterUnit":"m.s-1","parameterCategory":1,"la1":30.2991,"la2":30.254,"lo1":-89.0895,"lo2":-89.0444,"dy":0.0017,"dx":0.0017,"nx":28,"ny":28,"refTime":"2025-11-05T09:00:00:Z","depth":0,"parameterNumber":2,"parameterNumberName":"U-component_of_WINDS"},"data":[0,0,0,0,0,0,0,0,0,0,0,0,0,0,0,0,0,0,0,0,0,0,0,0,0,0,0,0,0,0,0,0,0,0,0,0,0,0,0,0,0,0,0,0,0,0,0,0,0,0,0,0,0,0,0,0,0,0,-4.7126,-4.7126,0,-4.7157,-4.7157,-4.7158,-4.7042,-4.7039,-4.7035,-4.7032,-4.7064,-4.7068,-4.7072,0,0,0,0,0,0,0,0,0,0,0,0,0,-4.6967,-4.697,-4.7126,-4.7126,-4.7127,-4.7157,-4.7157,-4.7158,-4.7043,-4.7038,-4.7034,-4.703,-4.7062,-4.7067,-4.7072,0,0,0,0,0,0,0,0,0,0,0,0,0,-4.7021,-4.6971,-4.7126,-4.7073,-4.7068,-4.7157,-4.7157,-4.7158,-4.7044,-4.7038,-4.7033,-4.7028,-4.7061,-4.7067,-4.7073,-4.7213,0,0,-4.7091,-4.7094,0,0,0,0,0,0,0,0,-4.7018,-4.7027,-4.708,-4.7077,-4.7072,-4.709,-4.7113,-4.7176,-4.7045,-4.7053,-4.7032,-4.7026,-4.7077,-4.7081,-4.7098,-4.7215,-4.7216,-4.7092,-4.7095,-4.7098,-4.71,0,0,0,0,0,0,0,-4.7014,-4.7025,-4.7138,-4.7081,-4.7076,-4.7048,-4.7049,-4.7124,-4.7093,-4.7052,-4.7044,-4.7049,-4.7073,-4.7093,-4.7098,-4.7217,-4.7092,-4.7097,-4.7101,-4.7103,-4.7451,-4.7456,0,0,0,0,0,0,-4.7017,-4.7022,-4.7137,-4.7139,-4.7032,-4.7055,-4.7057,-4.709,-4.7092,-4.7088,-4.7053,-4.7043,-4.7085,-4.7091,-4.7099,-4.7264,-4.7098,-4.7104,-4.7107,-4.7445,-4.7452,-4.7458,0,0,0,0,0,0,-4.7014,-4.7029,-4.7136,-4.7078,-4.709,-4.7063,-4.7101,-4.7093,-4.7112,-4.7093,-4.7087,-4.7079,-4.7081,-4.709,-4.7186,-4.7264,-4.7106,-4.7112,-4.7439,-4.7448,-4.7455,-4.7596,0,0,0,0,0,0,-4.701,-4.7028,-4.7082,-4.7081,-4.7093,-4.7223,-4.7105,-4.7097,-4.7123,-4.711,-4.7115,-4.7111,-4.7078,-4.7177,-4.7192,-4.7269,-4.7117,-4.7432,-4.7443,-4.7453,-4.7585,-4.7609,-4.7629,0,0,0,0,0,-4.7005,-4.712,-4.7085,-4.7099,-4.7159,-4.7227,-4.7235,-4.7194,-4.713,-4.7183,-4.7171,-4.7111,-4.7253,-4.7188,-4.7204,-4.7284,-4.7427,-4.744,-4.7452,-4.7575,-4.7604,-4.7629,0,0,0,0,0,0,-4.713,-4.7119,-4.708,-4.7197,-4.7215,-4.7208,-4.7274,-4.7226,-4.7261,-4.7248,-4.7195,-4.7197,-4.7303,-4.7302,-4.7231,-4.7421,-4.7329,-4.7345,-4.7417,-4.7445,-4.7466,-4.7464,-4.7122,0,0,0,0,0,-4.7172,-4.7228,-4.7215,-4.732,-4.733,-4.7301,-4.7329,-4.7296,-4.7311,-4.7318,-4.7313,-4.733,-4.7378,-4.7411,-4.7455,-4.7584,-4.7584,-4.7647,-4.7669,-4.7687,-4.7702,-4.7772,-4.78,-4.75,-4.75,-4.7499,0,0,-4.7257,-4.7258,-4.7297,-4.7345,-4.7354,-4.7414,-4.7308,-4.7375,-4.7419,-4.7328,-4.7418,-4.7416,-4.7431,-4.7545,-4.7594,-4.7548,-4.7785,-4.7704,-4.7718,-4.7723,-4.7788,-4.7816,-4.7842,-4.7508,-4.7507,-4.7505,0,0,-4.7444,-4.7451,-4.7539,-4.7551,-4.7566,-4.7546,-4.7568,-4.7569,-4.7564,-4.7653,-4.7587,-4.7638,-4.7722,-4.7736,-4.7755,-4.7949,-4.7896,-4.7964,-4.8081,-4.8149,-4.8173,-4.8193,-4.8264,-4.8289,-4.7979,-4.798,-4.798,0,-4.7549,-4.7637,-4.7591,-4.7663,-4.7687,-4.7608,-4.7697,-4.7711,-4.774,-4.7758,-4.7705,-4.781,-4.7815,-4.7931,-4.7979,-4.7996,-4.8019,-4.7964,-4.8173,-4.8193,-4.8212,-4.8278,-4.8305,-4.7988,-4.7987,-4.7986,-4.7985,0,-4.7765,-4.7827,-4.7896,-4.7927,-4.7958,-4.8039,-4.8006,-4.8043,-4.8008,-4.7993,-4.8086,-4.809,-4.8133,-4.8158,-4.8124,-4.827,-4.8241,-4.8182,-4.8088,-4.825,-4.8311,-4.8336,-4.8,-4.7997,-4.7994,-4.7992,0,0,-4.8031,-4.8036,-4.8063,-4.8076,-4.8088,-4.8135,-4.8212,-4.8255,-4.8288,-4.8311,-4.8375,-4.8449,-4.8395,-4.8416,-4.8382,-4.8443,-4.8597,-4.8376,-4.8375,-4.8418,-4.876,-4.8805,-4.8835,-4.8562,-4.8567,-4.857,-4.8759,0,-4.8215,-4.8348,-4.831,-4.8443,-4.85,-4.8426,-4.8494,-4.8509,-4.8498,-4.8545,-4.8532,-4.8585,-4.8509,-4.8521,-4.8578,-4.8567,-4.8666,-4.8552,-4.8622,-4.8625,-4.8621,-4.8867,-4.8914,-4.9092,-4.8783,-4.8787,-4.879,0,-4.8448,-4.8481,-4.8621,-4.8624,-4.8646,-4.8708,-4.8744,-4.879,-4.8805,-4.8793,-4.8818,-4.8772,-4.8849,-4.8756,-4.8861,-4.8785,-4.8811,-4.881,-4.8816,-4.8821,-4.8718,-4.888,-4.9148,-4.9175,-4.8827,-4.8824,-4.8821,0,-4.863,-4.8709,-4.8802,-4.8816,-4.8822,-4.8867,-4.8872,-4.8882,-4.8911,-4.8943,-4.8961,-4.9001,-4.9024,-4.9056,-4.9024,-4.8958,-4.9135,-4.9038,-4.9128,-4.9129,-4.9168,-4.9166,-4.9445,-4.9185,-4.9184,-4.9184,-4.9183,0,-4.884,-4.8928,-4.8884,-4.8942,-4.9039,-4.8994,-4.9091,-4.9087,-4.9098,-4.9154,-4.9092,-4.9146,-4.9099,-4.915,-4.9124,-4.9216,-4.9227,-4.9219,-4.9212,-4.9225,-4.9227,-4.9242,-4.9229,-4.9191,-4.9189,-4.9188,-4.9187,0,-4.9059,-4.9033,-4.913,-4.9128,-4.913,-4.9202,-4.92,-4.9254,-4.9238,-4.931,-4.9324,-4.9301,-4.9357,-4.9327,-4.9385,-4.9368,-4.9487,-4.9463,-4.9482,-4.9476,-4.9567,-4.956,-4.9867,-4.9905,-4.9619,-4.9622,-4.9624,0,-4.9195,-4.9261,-4.9267,-4.93,-4.9309,-4.9363,-4.9392,-4.9351,-4.9384,-4.9407,-4.9458,-4.9509,-4.9547,-4.964,-4.9628,-4.9672,-4.9649,-4.9753,-4.9655,-4.9667,-4.9651,-4.9648,-4.9655,-4.9773,-4.9776,-4.9779,-4.9781,0,-4.9439,-4.9423,-4.9467,-4.9508,-4.9545,-4.9574,-4.9599,-4.963,-4.9589,-4.9629,-4.9685,-4.9715,-4.9775,-4.9826,-4.9864,-4.9869,-4.982,-4.9813,-4.9836,-4.985,-4.9859,-4.9857,-4.9537,-4.9806,-4.9803,-4.9801,-4.98,-4.9799,-4.9621,-4.9677,-4.969,-4.9742,-4.9756,-4.9781,-4.9832,-4.9823,-4.9869,-4.9915,-4.9887,-4.9954,-4.9969,-5.0015,-5.0027,-5.0079,-5.0037,-5.0071,-5.0079,-5.0088,-5.0101,-4.9851,-5.0086,-5.0085,-5.0084,-5.0084,-5.0083,0,-4.9863,-4.9868,-4.9916,-4.9953,-4.9994,-4.9943,-4.9968,-5.0006,-5.0065,-5.0083,-5.0123,-5.0189,-5.0238,-5.0231,-5.0277,-5.032,-5.0298,-5.0333,-5.033,-5.0332,-5.0135,-5.0111,-5.035,-5.035,-5.035,-5.035,-5.035,-5.035,-4.9993,-5.0086,-5.0072,-5.0171,-5.0175,-5.0241,-5.0259,-5.0282,-5.0296,-5.0373,-5.0414,-5.0409,-5.0417,-5.0463,-5.0507,-5.0503,-5.0524,-5.0567,-5.0556,-5.0372,-5.0346,-5.0321,-5.0298,-5.0572,-5.0572,-5.0748,-5.075,-5.0751]},{"header":{"parameterUnit":"m.s-1","parameterCategory":1,"la1":30.2991,"la2":30.254,"lo1":-89.0895,"lo2":-89.0444,"dy":0.0017,"dx":0.0017,"nx":28,"ny":28,"refTime":"2025-11-05T09:00:00:Z","depth":0,"parameterNumber":3,"parameterNumberName":"V-component_of_WINDS"},"data":[0,0,0,0,0,0,0,0,0,0,0,0,0,0,0,0,0,0,0,0,0,0,0,0,0,0,0,0,0,0,0,0,0,0,0,0,0,0,0,0,0,0,0,0,0,0,0,0,0,0,0,0,0,0,0,0,0,0,-3.4839,-3.484,0,-3.4889,-3.4889,-3.489,-3.4797,-3.4794,-3.4791,-3.4788,-3.4838,-3.4842,-3.4846,0,0,0,0,0,0,0,0,0,0,0,0,0,-3.4663,-3.4666,-3.4839,-3.484,-3.4841,-3.4889,-3.4889,-3.489,-3.4798,-3.4794,-3.479,-3.4787,-3.4837,-3.4842,-3.4847,0,0,0,0,0,0,0,0,0,0,0,0,0,-3.4729,-3.4668,-3.4839,-3.48,-3.4797,-3.4888,-3.4889,-3.489,-3.4798,-3.4794,-3.4789,-3.4785,-3.4835,-3.4841,-3.4847,-3.4979,0,0,-3.4867,-3.4869,0,0,0,0,0,0,0,0,-3.4725,-3.4735,-3.4805,-3.4803,-3.48,-3.4832,-3.4845,-3.492,-3.48,-3.4798,-3.4788,-3.4783,-3.484,-3.4845,-3.4865,-3.4981,-3.4983,-3.4867,-3.4871,-3.4874,-3.4875,0,0,0,0,0,0,0,-3.472,-3.4732,-3.4859,-3.4807,-3.4803,-3.478,-3.4784,-3.4859,-3.4844,-3.4798,-3.4791,-3.4798,-3.4837,-3.4859,-3.4865,-3.4984,-3.4867,-3.4873,-3.4876,-3.4879,-3.5207,-3.5212,0,0,0,0,0,0,-3.4721,-3.4729,-3.4857,-3.486,-3.475,-3.4787,-3.4791,-3.4826,-3.4843,-3.4841,-3.4802,-3.4794,-3.485,-3.4858,-3.4867,-3.502,-3.4874,-3.488,-3.4883,-3.5202,-3.5208,-3.5213,0,0,0,0,0,0,-3.4718,-3.4733,-3.4855,-3.4793,-3.4807,-3.4794,-3.4835,-3.483,-3.4851,-3.4846,-3.4843,-3.4827,-3.4847,-3.4858,-3.4951,-3.502,-3.4882,-3.4888,-3.5196,-3.5204,-3.5211,-3.5328,0,0,0,0,0,0,-3.4713,-3.4733,-3.4783,-3.4795,-3.481,-3.494,-3.4839,-3.4834,-3.4862,-3.4852,-3.4869,-3.4867,-3.4844,-3.4942,-3.4957,-3.5026,-3.4893,-3.519,-3.52,-3.5208,-3.5318,-3.5339,-3.5356,0,0,0,0,0,-3.4707,-3.4815,-3.4786,-3.4802,-3.4874,-3.4944,-3.4953,-3.4924,-3.4868,-3.4918,-3.4915,-3.4867,-3.501,-3.4952,-3.4969,-3.5041,-3.5185,-3.5197,-3.5208,-3.5309,-3.5334,-3.5356,0,0,0,0,0,0,-3.4812,-3.4816,-3.4784,-3.4899,-3.4922,-3.4928,-3.4991,-3.4952,-3.4992,-3.498,-3.4943,-3.4947,-3.5047,-3.5053,-3.4989,-3.5167,-3.5088,-3.5103,-3.516,-3.5184,-3.5202,-3.5199,-3.4898,0,0,0,0,0,-3.4849,-3.4906,-3.4906,-3.5007,-3.502,-3.5004,-3.5034,-3.5009,-3.5031,-3.5041,-3.5044,-3.5067,-3.5116,-3.515,-3.5196,-3.5318,-3.5319,-3.5375,-3.5394,-3.541,-3.5424,-3.5486,-3.5511,-3.525,-3.525,-3.525,0,0,-3.4925,-3.4934,-3.4973,-3.5029,-3.5044,-3.5103,-3.5013,-3.508,-3.5123,-3.5051,-3.5139,-3.5142,-3.5164,-3.5272,-3.532,-3.528,-3.5496,-3.5424,-3.5437,-3.5442,-3.55,-3.5525,-3.5547,-3.5257,-3.5256,-3.5255,0,0,-3.5094,-3.5108,-3.5192,-3.5209,-3.5232,-3.522,-3.524,-3.5252,-3.5251,-3.5338,-3.5284,-3.5335,-3.5422,-3.544,-3.5461,-3.5634,-3.559,-3.5649,-3.5749,-3.5811,-3.5832,-3.585,-3.591,-3.5932,-3.5663,-3.5663,-3.5663,0,-3.5186,-3.5274,-3.5241,-3.5311,-3.5337,-3.5273,-3.5358,-3.5375,-3.5412,-3.5431,-3.5386,-3.5492,-3.5503,-3.5613,-3.5655,-3.5674,-3.5695,-3.5648,-3.5831,-3.5849,-3.5865,-3.5923,-3.5946,-3.567,-3.5669,-3.5668,-3.5668,0,-3.5385,-3.5447,-3.5513,-3.5549,-3.5582,-3.566,-3.5637,-3.5673,-3.5646,-3.5638,-3.5726,-3.5737,-3.5783,-3.5807,-3.5781,-3.5913,-3.5887,-3.5838,-3.5757,-3.5898,-3.5951,-3.5973,-3.568,-3.5677,-3.5675,-3.5674,0,0,-3.5625,-3.564,-3.5664,-3.5679,-3.5699,-3.5745,-3.5819,-3.5863,-3.5895,-3.5922,-3.5982,-3.6056,-3.6009,-3.6032,-3.6007,-3.6062,-3.6196,-3.6005,-3.6005,-3.6039,-3.634,-3.6377,-3.6403,-3.6167,-3.6171,-3.6174,-3.6337,0,-3.5791,-3.5918,-3.5889,-3.6014,-3.6069,-3.6008,-3.6071,-3.609,-3.6084,-3.6129,-3.6122,-3.6175,-3.611,-3.6123,-3.6174,-3.6169,-3.6256,-3.6157,-3.6221,-3.6224,-3.6218,-3.6431,-3.6471,-3.6624,-3.6358,-3.6361,-3.6364,0,-3.6004,-3.6038,-3.6169,-3.6177,-3.6199,-3.6257,-3.6293,-3.6338,-3.6357,-3.6348,-3.6373,-3.6337,-3.6408,-3.6327,-3.6424,-3.6357,-3.6381,-3.6383,-3.6388,-3.6393,-3.6303,-3.6441,-3.6673,-3.6696,-3.6397,-3.6394,-3.6392,0,-3.6164,-3.6243,-3.633,-3.6345,-3.6357,-3.6398,-3.6405,-3.6419,-3.6447,-3.6479,-3.6496,-3.6536,-3.6558,-3.659,-3.6565,-3.6508,-3.6665,-3.6582,-3.6659,-3.666,-3.6695,-3.6694,-3.6934,-3.6712,-3.6712,-3.6711,-3.6711,0,-3.6354,-3.6436,-3.6402,-3.6456,-3.6545,-3.6509,-3.6598,-3.6598,-3.661,-3.6662,-3.6611,-3.6661,-3.6625,-3.6671,-3.6651,-3.6733,-3.6744,-3.6738,-3.6732,-3.6743,-3.6744,-3.6759,-3.6747,-3.6717,-3.6716,-3.6715,-3.6714,0,-3.6548,-3.6529,-3.662,-3.6623,-3.6625,-3.6691,-3.6693,-3.6742,-3.6731,-3.6797,-3.6811,-3.6794,-3.6845,-3.6823,-3.6878,-3.6864,-3.6969,-3.6949,-3.6963,-3.6958,-3.7036,-3.7029,-3.7294,-3.7327,-3.7084,-3.7087,-3.7089,0,-3.6671,-3.6732,-3.6741,-3.6772,-3.6782,-3.6833,-3.686,-3.6827,-3.6857,-3.6881,-3.6927,-3.6974,-3.701,-3.7094,-3.7087,-3.7127,-3.7107,-3.7197,-3.7113,-3.7121,-3.7108,-3.7104,-3.7109,-3.7215,-3.7217,-3.722,-3.7222,0,-3.689,-3.6876,-3.6918,-3.6956,-3.699,-3.7018,-3.7042,-3.707,-3.7037,-3.7074,-3.7125,-3.7153,-3.7207,-3.7254,-3.7289,-3.7295,-3.7253,-3.7248,-3.7268,-3.7279,-3.7285,-3.7282,-3.7009,-3.7242,-3.724,-3.7239,-3.7238,-3.7237,-3.7051,-3.7102,-3.7116,-3.7163,-3.7177,-3.72,-3.7245,-3.7239,-3.7282,-3.7323,-3.7301,-3.736,-3.7375,-3.7417,-3.7429,-3.7474,-3.7439,-3.7468,-3.7475,-3.7483,-3.7493,-3.7277,-3.7481,-3.748,-3.7479,-3.7479,-3.7478,0,-3.7267,-3.7272,-3.7316,-3.735,-3.7387,-3.7343,-3.7366,-3.74,-3.7453,-3.747,-3.7505,-3.7563,-3.7607,-3.7602,-3.7642,-3.7679,-3.7661,-3.7691,-3.7688,-3.769,-3.7523,-3.7501,-3.7705,-3.7705,-3.7705,-3.7705,-3.7705,-3.7705,-3.7384,-3.7466,-3.7454,-3.7542,-3.7546,-3.7604,-3.7621,-3.7641,-3.7654,-3.7721,-3.7757,-3.7753,-3.7761,-3.7801,-3.7839,-3.7836,-3.7853,-3.789,-3.788,-3.7724,-3.7702,-3.768,-3.766,-3.7894,-3.7894,-3.8043,-3.8044,-3.8046]}]]